Regional Weather Roundup
Issued by NWS

Home | Current Version | Previous Version | Graphics & Text | Print | Product List | Glossary On
Versions: 1 2 3 4 5 6 7 8 9 10 11 12 13 14 15 16 17 18 19 20 21 22 23 24 25 26 27 28 29 30 31 32 33 34 35 36 37 38 39 40 41 42 43 44 45 46 47 48 49 50
000
ASUS45 KBOI 280110
RWRID

IDAHO REGIONAL WEATHER ROUNDUP
NATIONAL WEATHER SERVICE BOISE ID
700 PM MDT WED JUL 27 2016

NOTE: "FAIR" INDICATES FEW OR NO CLOUDS BELOW 12000 FEET
WITH NO SIGNIFICANT WEATHER AND/OR OBSTRUCTIONS TO VISIBILITY

IDZ012-014-280200-
SOUTHWEST IDAHO


CITY           SKY/WX    TMP DP  RH WIND       PRES   REMARKS
BOISE          SUNNY     99  38  12 NW14      29.93F HX  94
CALDWELL       SUNNY     98  48  18 NW7       29.91F HX  94
MOUNTAIN HOME  SUNNY    101  36  10 N17G24    29.92S HX  95
$$

IDZ016-017-280200-
SOUTHCENTRAL IDAHO


CITY           SKY/WX    TMP DP  RH WIND       PRES   REMARKS
BURLEY         SUNNY     93  43  17 NE3       30.00F
JEROME         SUNNY     94  49  21 W3        30.00F HX  90
TWIN FALLS     SUNNY     95  32  11 E3        30.01F HX  90
$$

IDZ019>023-280200-
SOUTHEAST IDAHO


CITY           SKY/WX    TMP DP  RH WIND       PRES   REMARKS
IDAHO FALLS    SUNNY     91  35  13 S14       30.07F
POCATELLO      SUNNY     94  32  11 W9        30.05F
REXBURG        SUNNY     89  34  14 S7        30.08F
$$

IDZ006-010-011-018-031-032-280200-
CENTRAL IDAHO MOUNTAINS


CITY           SKY/WX    TMP DP  RH WIND       PRES   REMARKS
MCCALL         SUNNY     86  29  12 NW6       30.14F
HAILEY         MOSUNNY   90  37  15 NW10        N/A
STANLEY          N/A     80  35  19 CALM      30.24F
SALMON         SUNNY     84  59  42 CALM      29.99S
CHALLIS        SUNNY     91  29  11 W10       30.07S
$$

IDZ002-004-006-007-026-280200-
NORTHERN IDAHO


CITY           SKY/WX    TMP DP  RH WIND       PRES   REMARKS
LEWISTON       MOSUNNY   97  48  18 NW14      29.93F HX  93
LOWELL           N/A     83  58  42 N3        29.92F
COEUR D`ALENE  MOSUNNY   90  52  27 W6        29.97F
MULLAN PASS    PTSUNNY   73  48  41 CALM      30.25F
$$



USA.gov is the U.S. government's official web portal to all federal, state and local government web resources and services.